Weather History for Sitka, AK

Change the Weather History Date:

Friday, November 2, 2012

  Actual Average Record
Temperature  
Mean Temperature 46 °F -  
Max Temperature 50 °F 48 °F 65 °F (1970)
Min Temperature 42 °F 39 °F 30 °F (1955)
Degree Days  
Heating Degree Days 19    
Moisture  
Dew Point 39 °F    
Average Humidity 79    
Maximum Humidity 100    
Minimum Humidity 54    
Precipitation  
Precipitation 0.23 in - - ()
Sea Level Pressure  
Sea Level Pressure 29.48 in    
Wind  
Wind Speed 15 mph (SE)    
Max Wind Speed 24 mph    
Max Gust Speed 36 mph    
Visibility 9 miles    
Events Rain    
Averages and records for this station are not official NWS values.
T = Trace of Precipitation, MM = Missing Value Source: NWS Daily Summary

Daily Weather History Graph

Daily Weather History Graph

Search for Another Location

Airport:

Trip Planner

Search our weather history database for the weather conditions in past years. The results will help you decide how hot, cold, wet, or windy it might be!

Date:

Astronomy

Nov. 02, 2012 Rise Set
Actual Time 8:15 AM AKDT 5:13 PM AKDT
Civil Twilight 7:34 AM AKDT 5:54 PM AKDT
Nautical Twilight 6:49 AM AKDT 6:39 PM AKDT
Astronomical Twilight 6:04 AM AKDT 7:24 PM AKDT
Moon 7:40 PM AKDT (11/2) 12:09 PM AKDT (11/2)
Length of Visible Light 10h 19m
Length of Day
8h 57m
Waning Gibbous, 86% of the Moon is Illuminated
Nov 2
Waning Gibbous
Nov 6
Last Quarter
Nov 13
New
Nov 20
First Quarter
Nov 28
Full

Hourly Weather History & Observations

Time (AKDT) Temp. Windchill Dew Point Humidity Pressure Visibility Wind Dir Wind Speed Gust Speed Precip Events Conditions
12:53 AM 48.0 °F - 32.0 °F 54% 29.55 in 10.0 mi ESE 13.8 mph 25.3 mph N/A   Mostly Cloudy
1:53 AM 48.0 °F - 34.0 °F 58% 29.51 in 10.0 mi ESE 16.1 mph 25.3 mph N/A   Partly Cloudy
2:53 AM 48.9 °F - 35.1 °F 59% 29.48 in 10.0 mi ESE 21.9 mph 29.9 mph N/A   Clear
3:53 AM 48.0 °F - 36.0 °F 63% 29.46 in 10.0 mi ESE 19.6 mph 28.8 mph N/A   Clear
4:53 AM 48.0 °F - 36.0 °F 63% 29.43 in 10.0 mi SE 19.6 mph 27.6 mph N/A   Mostly Cloudy
5:53 AM 48.0 °F - 37.0 °F 66% 29.40 in 10.0 mi ESE 19.6 mph 28.8 mph 0.00 in Rain Light Rain
6:53 AM 46.9 °F - 39.0 °F 74% 29.38 in 10.0 mi ESE 21.9 mph 31.1 mph 0.01 in Rain Light Rain
7:53 AM 48.0 °F - 39.0 °F 71% 29.37 in 10.0 mi SE 17.3 mph 26.5 mph 0.00 in   Overcast
8:53 AM 50.0 °F - 37.9 °F 63% 29.39 in 10.0 mi ESE 19.6 mph 29.9 mph 0.00 in   Overcast
9:24 AM 46.4 °F 41.1 °F 42.8 °F 87% 29.44 in 9.0 mi South 11.5 mph - 0.00 in Rain Light Rain
9:38 AM 46.4 °F 38.1 °F 44.6 °F 93% 29.45 in 2.5 mi SSW 24.2 mph 35.7 mph 0.02 in Rain Rain
9:44 AM 44.6 °F 37.8 °F 44.6 °F 100% 29.46 in 3.0 mi South 15.0 mph 33.4 mph 0.03 in Rain Rain
9:53 AM 45.0 °F 37.6 °F 43.0 °F 93% 29.47 in 4.0 mi South 17.3 mph 27.6 mph 0.04 in Rain Light Rain
10:13 AM 44.6 °F 38.8 °F 42.8 °F 93% 29.48 in 4.0 mi SSW 11.5 mph 21.9 mph 0.03 in Rain Light Rain
10:53 AM 46.0 °F 41.4 °F 43.0 °F 89% 29.50 in 6.0 mi SE 9.2 mph - 0.08 in Rain Rain
11:53 AM 45.0 °F 40.6 °F 43.0 °F 93% 29.52 in 3.0 mi SE 8.1 mph - 0.06 in Rain Light Rain
12:53 PM 46.9 °F - 42.1 °F 83% 29.54 in 10.0 mi East 8.1 mph - 0.01 in   Overcast
1:53 PM 46.9 °F - 42.1 °F 83% 29.54 in 10.0 mi SE 6.9 mph - N/A   Mostly Cloudy
2:53 PM 46.9 °F - 41.0 °F 80% 29.53 in 10.0 mi East 4.6 mph - 0.00 in   Scattered Clouds
3:53 PM 46.9 °F - 37.9 °F 71% 29.52 in 10.0 mi ESE 10.4 mph - N/A   Mostly Cloudy
4:53 PM 45.0 °F 41.2 °F 41.0 °F 86% 29.52 in 10.0 mi ESE 6.9 mph - N/A   Mostly Cloudy
5:49 PM 44.6 °F 39.7 °F 39.2 °F 81% 29.52 in 10.0 mi ESE 9.2 mph - 0.02 in Rain Light Rain
5:53 PM 44.1 °F 38.6 °F 39.9 °F 85% 29.52 in 10.0 mi East 10.4 mph - 0.02 in Rain Light Rain
6:00 PM 42.8 °F 38.0 °F 39.2 °F 87% 29.51 in 10.0 mi East 8.1 mph - N/A   Overcast
6:53 PM 43.0 °F 38.8 °F 39.0 °F 86% 29.50 in 10.0 mi East 6.9 mph - 0.00 in   Overcast
7:53 PM 45.0 °F 38.5 °F 37.9 °F 76% 29.50 in 10.0 mi ESE 13.8 mph - 0.00 in   Overcast
8:53 PM 44.1 °F 37.4 °F 39.0 °F 82% 29.51 in 10.0 mi East 13.8 mph - 0.01 in Rain Light Rain
9:53 PM 44.1 °F 37.1 °F 37.0 °F 76% 29.50 in 10.0 mi East 15.0 mph 26.5 mph 0.00 in   Overcast
10:53 PM 43.0 °F 35.4 °F 39.0 °F 86% 29.49 in 10.0 mi ESE 16.1 mph 23.0 mph N/A   Mostly Cloudy
11:53 PM 45.0 °F 38.2 °F 37.0 °F 74% 29.49 in 10.0 mi ESE 15.0 mph - N/A   Overcast